Stations météo

réclame
Mon MeteoGroup
Farnborough, Grande-Bretagne (3768): Température de l'air & dewpoint: 08.08.2018 22:00:00 - 14.08.2018 22:00:00 (BST)Farnborough, Grande-Bretagne (3768): Température de l'air -100cm: 08.08.2018 22:00:00 - 14.08.2018 22:00:00 (BST)Farnborough, Grande-Bretagne (3768): Vitesse du vent & gusts: 08.08.2018 22:00:00 - 14.08.2018 22:00:00 (BST)Farnborough, Grande-Bretagne (3768): Direction du vent: 08.08.2018 22:00:00 - 14.08.2018 22:00:00 (BST)Farnborough, Grande-Bretagne (3768): reduced air pressure: 08.08.2018 22:00:00 - 14.08.2018 22:00:00 (BST)Farnborough, Grande-Bretagne (3768): visibility: 08.08.2018 22:00:00 - 14.08.2018 22:00:00 (BST)Farnborough, Grande-Bretagne (3768): Quantités de précipitations: 08.08.2018 22:00:00 - 14.08.2018 22:00:00 (BST)
Date & Time tt [°C] td [°C] tt -100cm [°C] ff [km/h] ff [knt] fx [km/h] fx [knt] dd ppp [hPa] vv [km] rr [mm]
14.08.2018 22:00:00 18,0 13,5 - 9 5 - - WNW 1018,4 24 0,0
14.08.2018 21:00:00 19,3 13,7 - 13 7 - - W 1018,1 26 0,0
14.08.2018 20:00:00 21,4 14,6 - 16 9 - - W 1017,2 10 0,0
14.08.2018 19:00:00 23,1 15,0 - 15 8 - - W 1016,6 10 0,0
14.08.2018 18:00:00 23,4 13,4 - 21 11 - - W 1016,8 10 0,0
14.08.2018 17:00:00 25,1 14,3 - 18 10 - - W 1016,8 10 0,0
14.08.2018 16:00:00 24,8 13,0 - 24 13 - - W 1016,6 10 0,0
14.08.2018 15:00:00 23,8 12,9 - 16 9 - - W 1016,7 10 0,0
14.08.2018 14:00:00 23,1 13,0 - 15 8 - - W 1016,9 10 0,0
14.08.2018 13:00:00 22,0 12,0 - 22 12 - - W - 10 0,0
14.08.2018 12:00:00 22,4 12,0 - 18 10 - - NW 1016,8 10 0,0
14.08.2018 11:00:00 20,8 12,6 - 11 6 - - WNW 1016,7 10 0,0
14.08.2018 10:00:00 19,2 14,4 17,4 11 6 - - W 1016,5 10 0,0
14.08.2018 09:00:00 17,4 14,0 - 13 7 - - WSW 1016,4 10 0,0
14.08.2018 08:00:00 15,2 13,4 - 8 4 - - WSW 1016,2 10 0,0
14.08.2018 07:00:00 13,9 12,9 - 8 4 - - W 1016,0 10 0,0
14.08.2018 06:00:00 11,3 10,5 - 4 2 - - SSW 1015,4 21 0,0
14.08.2018 05:00:00 12,8 11,8 - 5 3 - - W 1014,8 27 0,0
14.08.2018 04:00:00 12,8 11,1 - 5 3 - - W 1014,5 30 0,0
14.08.2018 03:00:00 14,8 12,3 - 11 6 - - W 1013,9 29 0,0
14.08.2018 02:00:00 15,7 13,0 - 11 6 - - W 1013,5 30 0,0
14.08.2018 01:00:00 16,3 14,6 - 9 5 - - WSW 1013,0 28 0,0
14.08.2018 00:00:00 16,8 14,8 - 8 4 - - W 1012,2 30 0,0
13.08.2018 23:00:00 17,4 14,7 - 9 5 - - WNW 1011,9 30 0,0
13.08.2018 22:00:00 18,6 15,0 - 13 7 - - W 1011,2 35 0,0
13.08.2018 21:00:00 19,2 14,7 - 9 5 - - W 1010,4 10 0,0
13.08.2018 20:00:00 21,4 14,0 - 18 10 - - WNW 1009,4 10 0,0
13.08.2018 19:00:00 22,8 13,0 - 18 10 - - WNW 1008,5 10 0,0
13.08.2018 18:00:00 22,7 11,9 - 15 8 - - WNW 1008,1 10 0,0
13.08.2018 17:00:00 23,4 12,6 - 15 8 - - W 1007,8 10 0,0
13.08.2018 16:00:00 22,4 13,4 - 15 8 - - W 1007,6 10 0,0
13.08.2018 15:00:00 23,8 13,7 - 24 13 - - W 1007,6 10 0,0
13.08.2018 14:00:00 23,7 14,8 - 21 11 - - WSW 1007,5 10 0,0
13.08.2018 13:00:00 21,8 13,7 - 15 8 - - W 1007,3 10 0,0
13.08.2018 12:00:00 20,6 14,9 - 16 9 - - W 1007,2 10 0,0
13.08.2018 11:00:00 19,4 16,1 - 11 6 - - NW 1007,1 10 0,0
13.08.2018 10:00:00 17,3 15,8 17,5 13 7 - - W 1006,9 10 0,0
13.08.2018 09:00:00 16,7 15,6 - 9 5 - - W 1006,6 10 0,2
13.08.2018 08:00:00 15,8 15,3 - 9 5 - - WSW 1006,3 10 0,0
13.08.2018 07:00:00 15,2 15,0 - 5 3 - - W 1006,0 9 0,0
13.08.2018 06:00:00 14,0 13,9 - 0 0 - - N 1005,5 8 0,0
13.08.2018 05:00:00 14,0 13,9 - 4 2 - - W 1005,4 9 0,0
13.08.2018 04:00:00 14,1 13,9 - 2 1 - - SSE 1005,5 10 0,0
13.08.2018 03:00:00 14,3 14,0 - 0 0 - - N 1005,7 5 0,0
13.08.2018 02:00:00 14,9 14,5 - 4 2 - - S 1006,0 12 0,0
13.08.2018 01:00:00 14,9 14,4 - 2 1 - - ESE 1006,3 19 0,0
13.08.2018 00:00:00 14,9 14,0 - 4 2 - - SE 1006,8 26 0,0
12.08.2018 23:00:00 15,4 14,4 - 5 3 - - SSE 1007,1 29 0,0
12.08.2018 22:00:00 15,5 14,3 - 8 4 - - S 1007,3 29 0,0
12.08.2018 21:00:00 15,5 14,0 - 13 7 - - S 1007,4 30 0,0
12.08.2018 20:00:00 16,8 12,6 - 21 11 - - S 1007,6 10 0,0
12.08.2018 19:00:00 17,5 14,0 - 15 8 - - S 1007,7 10 0,2
12.08.2018 18:00:00 18,6 14,0 - 21 11 - - S 1008,4 10 0,0
12.08.2018 17:00:00 19,3 13,6 - 18 10 - - SSE 1008,5 10 0,0
12.08.2018 16:00:00 18,7 13,5 - 21 11 - - S 1009,2 10 0,0
12.08.2018 15:00:00 16,9 14,3 - 13 7 - - S 1009,9 10 0,0
12.08.2018 14:00:00 17,7 14,3 - 15 8 - - S 1010,2 10 0,0
12.08.2018 13:00:00 17,6 15,3 - 21 11 - - SSW 1010,7 10 0,0
12.08.2018 12:00:00 18,9 11,9 - 31 17 52 28 S 1010,9 10 0,0
12.08.2018 11:00:00 20,0 13,5 - 21 11 - - S 1010,8 10 0,0
12.08.2018 10:00:00 18,7 15,2 17,7 15 8 - - S 1011,1 10 0,0
12.08.2018 09:00:00 17,6 15,4 - 11 6 - - S 1011,7 10 0,2
12.08.2018 08:00:00 17,5 15,0 - 13 7 - - SSW 1012,0 10 0,0
12.08.2018 07:00:00 17,3 14,7 - 9 5 - - S 1012,4 24 0,0
12.08.2018 06:00:00 16,7 15,6 - 8 4 - - S 1012,6 19 0,0
12.08.2018 05:00:00 16,1 15,0 - 8 4 - - SE 1012,7 30 0,0
12.08.2018 04:00:00 15,7 14,8 - 8 4 - - SE 1013,8 24 0,0
12.08.2018 03:00:00 15,6 14,5 - 8 4 - - SSE 1015,0 23 0,0
12.08.2018 02:00:00 16,1 14,8 - 9 5 - - SSE 1015,6 24 0,0
12.08.2018 01:00:00 16,5 14,8 - 8 4 - - SSE 1016,4 28 0,0
12.08.2018 00:00:00 16,5 14,6 - 11 6 - - SSE 1017,1 24 0,0
11.08.2018 23:00:00 16,4 14,6 - 13 7 - - SSE 1017,6 21 0,0
11.08.2018 22:00:00 16,6 14,4 - 13 7 - - SSE 1018,5 26 0,0
11.08.2018 21:00:00 16,6 14,4 - 13 7 - - S 1018,9 25 0,0
11.08.2018 20:00:00 16,7 14,6 - 13 7 - - S 1019,3 10 0,0
11.08.2018 19:00:00 16,4 14,5 - 18 10 - - SSW 1020,0 10 0,2
11.08.2018 18:00:00 17,9 14,7 - 13 7 - - S 1020,3 10 0,0
11.08.2018 17:00:00 17,5 14,7 - 13 7 - - S 1020,7 10 0,0
11.08.2018 16:00:00 18,2 13,4 - 22 12 - - S 1021,4 10 0,0
11.08.2018 15:00:00 18,7 12,4 - 22 12 - - S 1021,9 10 0,0
11.08.2018 14:00:00 18,9 10,8 - 15 8 - - S 1022,3 10 0,0
11.08.2018 13:00:00 19,7 8,7 - 16 9 - - S 1022,4 35 0,0
11.08.2018 12:00:00 18,8 6,8 - 13 7 - - S 1022,9 35 0,0
11.08.2018 11:00:00 18,1 6,8 - 13 7 - - S 1023,1 10 0,0
11.08.2018 10:00:00 17,3 8,6 17,7 9 5 - - S 1023,3 10 0,0
11.08.2018 09:00:00 15,9 10,0 - 5 3 - - - 1023,7 10 0,0
11.08.2018 08:00:00 12,8 12,2 - 0 0 - - N 1023,6 10 0,0
11.08.2018 07:00:00 7,5 7,3 - 2 1 - - NNW 1023,7 30 0,0
11.08.2018 06:00:00 6,2 5,9 - 4 2 - - SSW 1023,6 24 0,0
11.08.2018 05:00:00 7,1 6,7 - 0 0 - - N 1023,1 21 0,0
11.08.2018 04:00:00 7,5 6,9 - 2 1 - - ESE 1022,9 18 0,0
11.08.2018 03:00:00 8,5 7,8 - 0 0 - - N 1022,8 30 0,0
11.08.2018 02:00:00 8,9 8,0 - 5 3 - - SW 1022,5 35 0,0
11.08.2018 01:00:00 10,0 8,8 - 5 3 - - WSW 1022,3 35 0,0
11.08.2018 00:00:00 11,8 9,9 - 2 1 - - WSW 1021,9 35 0,0
10.08.2018 23:00:00 12,9 10,3 - 5 3 - - SSW 1021,4 40 0,0
10.08.2018 22:00:00 14,8 10,0 - 5 3 - - WSW 1020,7 45 0,0
10.08.2018 21:00:00 15,5 8,7 - 9 5 - - NNW 1019,9 10 0,0
10.08.2018 20:00:00 16,5 9,5 - 18 10 - - NNW 1018,9 10 0,0
10.08.2018 19:00:00 18,8 9,0 - 22 12 - - W 1017,6 10 0,0
10.08.2018 18:00:00 19,7 10,2 - 24 13 - - WSW 1017,0 10 0,0
10.08.2018 17:00:00 18,8 14,0 - 24 13 - - SW 1016,8 10 0,0
10.08.2018 16:00:00 16,7 12,4 - 16 9 - - W 1017,2 10 0,2
10.08.2018 15:00:00 16,1 15,2 - 13 7 - - SW 1017,0 10 1,0
10.08.2018 14:00:00 14,5 11,4 - 31 17 57 31 WSW 1016,9 4,0 1,6
10.08.2018 13:00:00 17,6 15,1 - 26 14 - - SSW 1016,1 10 0,0
10.08.2018 12:00:00 16,7 14,4 - 24 13 - - S 1016,9 10 0,8
10.08.2018 11:00:00 15,7 11,0 - 22 12 - - SSW 1017,9 10 0,0
10.08.2018 10:00:00 17,6 9,8 17,7 26 14 - - SW 1018,1 10 0,0
10.08.2018 09:00:00 16,0 10,7 - 24 13 - - WSW 1018,4 10 0,0
10.08.2018 08:00:00 14,9 10,3 - 21 11 - - SW 1018,4 10 0,0
10.08.2018 07:00:00 12,7 9,7 - 15 8 - - WSW 1018,2 10 0,0
10.08.2018 06:00:00 11,5 9,6 - 11 6 - - SW 1018,2 30 0,0
10.08.2018 05:00:00 11,1 8,5 - 9 5 - - WSW 1018,1 28 0,0
10.08.2018 04:00:00 10,9 7,9 - 11 6 - - SW 1018,1 30 0,0
10.08.2018 03:00:00 11,8 8,3 - 11 6 - - WSW 1018,1 30 0,0
10.08.2018 02:00:00 11,7 7,9 - 9 5 - - WSW 1018,0 30 0,0
10.08.2018 01:00:00 11,5 8,0 - 9 5 - - WSW 1017,8 28 0,0
10.08.2018 00:00:00 11,3 6,7 - 8 4 - - WSW 1017,6 30 0,0
09.08.2018 23:00:00 10,1 6,8 - 8 4 - - SW 1017,2 30 0,0
09.08.2018 22:00:00 11,9 9,8 - 5 3 - - SSW 1016,4 10 0,0
09.08.2018 21:00:00 15,6 10,5 - 9 5 - - SW 1015,3 10 0,0
09.08.2018 20:00:00 16,8 11,3 - 11 6 - - ESE 1014,8 10 0,0
09.08.2018 19:00:00 17,6 10,3 - 11 6 - - NNE 1013,9 10 0,0
09.08.2018 18:00:00 20,7 8,1 - 15 8 - - W 1013,2 10 0,0
09.08.2018 17:00:00 18,3 11,8 - 4 2 - - - 1013,2 10 0,0
09.08.2018 16:00:00 17,6 11,6 - 8 4 - - SW 1013,3 10 0,0
09.08.2018 15:00:00 17,4 13,8 - 9 5 - - WSW 1013,3 10 0,0
09.08.2018 14:00:00 15,4 13,3 - 9 5 - - WNW 1013,6 10 0,4
09.08.2018 13:00:00 14,8 12,6 - 8 4 - - WNW 1013,4 10 0,4
09.08.2018 12:00:00 14,7 13,2 - 9 5 - - WNW 1013,0 10 1,0
09.08.2018 11:00:00 14,8 12,8 - 4 2 - - - 1013,1 10 0,2
09.08.2018 10:00:00 15,0 13,1 17,7 9 5 - - NW 1012,7 10 0,0
09.08.2018 09:00:00 14,8 13,5 - 5 3 - - - 1013,0 10 0,2
09.08.2018 08:00:00 14,5 13,0 - 4 2 - - - 1013,2 10 0,2
09.08.2018 07:00:00 14,4 13,1 - 5 3 - - - 1013,0 10 0,0
09.08.2018 06:00:00 14,3 12,8 - 2 1 - - W 1013,1 19 0,0
09.08.2018 05:00:00 14,5 13,1 - 5 3 - - WNW 1013,0 16 0,0
09.08.2018 04:00:00 14,3 13,1 - 2 1 - - WSW 1012,9 18 0,0
09.08.2018 03:00:00 14,9 13,0 - 2 1 - - S 1013,3 21 0,0
09.08.2018 02:00:00 15,3 12,9 - 5 3 - - SW 1013,9 16 0,0
09.08.2018 01:00:00 15,4 12,2 - 5 3 - - SW 1014,2 23 0,0
09.08.2018 00:00:00 15,9 12,2 - 8 4 - - S 1013,9 22 0,0
08.08.2018 23:00:00 15,7 12,0 - 8 4 - - S 1013,5 23 0,0
08.08.2018 22:00:00 16,4 11,5 - 5 3 - - SW 1013,6 30 0,0

tt = Température de l'air
td = dewpoint
tt -100cm = Température de l'air -100cm
ff = Vitesse du vent
fx = gusts
dd = Direction du vent
ppp = reduced air pressure
vv = visibility
rr = Quantités de précipitations

stations d'obs. à proximité